Weather History for Altoona, PA

Change the Weather History Date:

Monday, February 4, 2013

  Actual Average Record
Temperature  
Mean Temperature 22 °F 28 °F  
Max Temperature 28 °F 35 °F 62 °F (1991)
Min Temperature 17 °F 20 °F -9 °F (1996)
Degree Days  
Heating Degree Days 42 37  
Month to date heating degree days 150  
Since 1 July heating degree days 3703  
Cooling Degree Days 0 0  
Month to date cooling degree days 0  
Year to date cooling degree days 0  
Moisture  
Dew Point 15 °F    
Average Humidity 75    
Maximum Humidity 93    
Minimum Humidity 57    
Precipitation  
Precipitation 0.07 in 0.07 in 0.84 in (1997)
Month to date precipitation 0.29  
Year to date precipitation 2.46  
Sea Level Pressure  
Sea Level Pressure 29.92 in    
Wind  
Wind Speed 10 mph (West)    
Max Wind Speed 18 mph    
Max Gust Speed 29 mph    
Visibility 5 miles    
Events Snow    
T = Trace of Precipitation, MM = Missing Value Source: NWS Daily Summary

Daily Weather History Graph

Daily Weather History Graph

Search for Another Location

Airport:

Trip Planner

Search our weather history database for the weather conditions in past years. The results will help you decide how hot, cold, wet, or windy it might be!

Date:

Astronomy

Feb. 04, 2013 Rise Set
Actual Time 7:19 AM EST 5:35 PM EST
Civil Twilight 6:50 AM EST 6:04 PM EST
Nautical Twilight 6:18 AM EST 6:36 PM EST
Astronomical Twilight 5:46 AM EST 7:08 PM EST
Moon 1:52 AM EST (2/4) 11:57 AM EST (2/4)
Length of Visible Light 11h 13m
Length of Day
10h 16m
Last Quarter, 37% of the Moon is Illuminated
Feb 4
Last Quarter
Feb 10
New
Feb 17
First Quarter
Feb 25
Full
Mar 4
Last Quarter

Hourly Weather History & Observations

Time (EST) Temp. Windchill Dew Point Humidity Pressure Visibility Wind Dir Wind Speed Gust Speed Precip Events Conditions
12:00 AM 19.4 °F 5.5 °F 10.4 °F 68% 29.90 in 6.0 mi West 15.0 mph 24.2 mph 0.00 in Snow Light Snow
12:53 AM 19.0 °F 4.0 °F 10.0 °F 68% 29.98 in 7.0 mi WNW 17.3 mph 26.5 mph 0.00 in Snow Light Snow
1:11 AM 17.6 °F 5.7 °F 12.2 °F 79% 29.91 in 2.5 mi West 10.4 mph 18.4 mph 0.00 in Snow Light Snow
1:16 AM 17.6 °F 5.0 °F 10.4 °F 73% 29.91 in 3.0 mi West 11.5 mph 19.6 mph 0.00 in Snow Light Snow
1:22 AM 17.6 °F 5.7 °F 12.2 °F 79% 29.92 in 2.5 mi West 10.4 mph - 0.00 in Snow Light Snow
1:31 AM 17.6 °F 6.4 °F 12.2 °F 79% 29.91 in 1.2 mi West 9.2 mph - 0.00 in Snow Light Snow
1:38 AM 17.6 °F 3.7 °F 10.4 °F 73% 29.91 in 3.0 mi West 13.8 mph 23.0 mph 0.00 in Snow Light Snow
1:53 AM 18.0 °F 3.6 °F 10.0 °F 71% 29.99 in 4.0 mi West 15.0 mph - 0.00 in Snow Light Snow
2:26 AM 17.6 °F 5.7 °F 10.4 °F 73% 29.93 in 1.8 mi West 10.4 mph - 0.00 in Snow Light Snow
2:39 AM 17.6 °F 1.7 °F 8.6 °F 68% 29.93 in 3.0 mi West 18.4 mph 24.2 mph 0.00 in Snow Light Snow
2:53 AM 17.1 °F 2.0 °F 9.0 °F 71% 30.00 in 5.0 mi West 16.1 mph - 0.00 in Snow Light Snow
3:00 AM 17.6 °F 3.7 °F 8.6 °F 68% 29.93 in 2.5 mi West 13.8 mph - 0.00 in Snow Light Snow
3:09 AM 17.6 °F 4.3 °F 10.4 °F 73% 29.93 in 2.0 mi West 12.7 mph - 0.00 in Snow Light Snow
3:17 AM 17.6 °F 3.2 °F 8.6 °F 68% 29.93 in 2.5 mi West 15.0 mph 20.7 mph 0.00 in Snow Light Snow
3:25 AM 17.6 °F 7.3 °F 8.6 °F 68% 29.93 in 5.0 mi West 8.1 mph 20.7 mph 0.00 in Snow Light Snow
3:53 AM 17.1 °F 4.3 °F 9.0 °F 71% 30.01 in 4.0 mi West 11.5 mph - 0.00 in Snow Light Snow
4:04 AM 17.6 °F 4.3 °F 8.6 °F 68% 29.94 in 3.0 mi West 12.7 mph - 0.00 in Snow Light Snow
6:53 AM 17.1 °F 2.5 °F 7.0 °F 65% 30.04 in 9.0 mi WNW 15.0 mph 21.9 mph 0.00 in Snow Light Snow
7:53 AM 17.1 °F 1.0 °F 6.1 °F 62% 30.05 in 10.0 mi WNW 18.4 mph 28.8 mph 0.00 in   Overcast
8:53 AM 17.1 °F 4.3 °F 7.0 °F 65% 30.06 in 10.0 mi West 11.5 mph - 0.00 in   Overcast
9:53 AM 19.9 °F 7.3 °F 9.0 °F 62% 30.04 in 10.0 mi West 12.7 mph - N/A   Scattered Clouds
10:53 AM 19.9 °F 9.3 °F 9.0 °F 62% 30.03 in 10.0 mi WSW 9.2 mph - N/A   Partly Cloudy
11:53 AM 24.1 °F 14.4 °F 10.9 °F 57% 30.00 in 10.0 mi West 9.2 mph - N/A   Scattered Clouds
12:53 PM 25.0 °F 16.3 °F 12.9 °F 60% 29.98 in 10.0 mi West 8.1 mph - N/A   Overcast
1:53 PM 27.0 °F 18.0 °F 15.1 °F 61% 29.95 in 10.0 mi WNW 9.2 mph - N/A   Overcast
2:53 PM 28.9 °F 21.9 °F 17.1 °F 61% 29.93 in 10.0 mi West 6.9 mph - N/A   Overcast
3:53 PM 28.0 °F 20.8 °F 18.0 °F 66% 29.94 in 7.0 mi WSW 6.9 mph - N/A   Overcast
4:53 PM 27.0 °F 23.0 °F 19.0 °F 72% 29.91 in 10.0 mi SW 3.5 mph - 0.00 in   Overcast
5:32 PM 26.6 °F - 19.4 °F 74% 29.84 in 2.5 mi Calm Calm - 0.00 in Snow Light Snow
5:49 PM 26.6 °F 21.2 °F 21.2 °F 80% 29.84 in 3.0 mi SSW 4.6 mph - 0.00 in Snow Light Snow
5:53 PM 26.1 °F 20.5 °F 21.0 °F 81% 29.91 in 2.0 mi SSW 4.6 mph - 0.00 in Snow Light Snow
5:56 PM 26.6 °F 21.2 °F 21.2 °F 80% 29.84 in 1.8 mi SSW 4.6 mph - 0.00 in Snow Light Snow
6:26 PM 26.6 °F 21.2 °F 21.2 °F 80% 29.84 in 2.0 mi SSW 4.6 mph - 0.00 in Snow Light Snow
6:35 PM 26.6 °F 22.6 °F 23.0 °F 86% 29.84 in 1.5 mi South 3.5 mph - 0.00 in Snow Light Snow
6:53 PM 26.1 °F - 23.0 °F 88% 29.91 in 1.5 mi Calm Calm - 0.01 in Snow Light Snow
7:49 PM 26.6 °F - 23.0 °F 86% 29.85 in 0.8 mi Calm Calm - 0.02 in Snow Light Snow
7:53 PM 26.1 °F - 23.0 °F 88% 29.91 in 0.8 mi Calm Calm - 0.02 in Snow Light Snow
8:15 PM 26.6 °F - 24.8 °F 93% 29.84 in 1.0 mi Calm Calm - 0.02 in Snow Light Snow
8:53 PM 26.1 °F - 23.0 °F 88% 29.91 in 1.2 mi Calm Calm - 0.03 in Snow Light Snow
9:03 PM 26.6 °F - 24.8 °F 93% 29.84 in 2.0 mi Calm Calm - 0.00 in Snow Light Snow
9:13 PM 26.6 °F - 24.8 °F 93% 29.83 in 2.5 mi Calm Calm - 0.00 in Snow Light Snow
9:32 PM 26.6 °F - 23.0 °F 86% 29.83 in 4.0 mi Calm Calm - 0.00 in Snow Light Snow
9:53 PM 26.1 °F - 24.1 °F 92% 29.90 in 8.0 mi Calm Calm - 0.00 in   Overcast
10:53 PM 26.1 °F - 23.0 °F 88% 29.88 in 6.0 mi Calm Calm - N/A   Overcast
11:53 PM 26.1 °F - 24.1 °F 92% 29.88 in 4.0 mi Calm Calm - 0.01 in Snow Light Snow